ASJ4SJ LGIR-LATI

Flight info

Callsign ASJ4SJ
Flight time 1h 47m
Altitude 36000
Route EPAL1R EPALO M749 DIRMI UL613 YNN/N0343F240 L604 DIMIS DCT ELBAK ELBA3M
Aircraft C510/L-SDE3GHIJ2J3J5M1RVWXYZ/LB2D1

Departure

Time 2026-05-09 03:31
Airport Heraklion International Nikos Kazantzakis Airport (LGIR)

Arrival

Time 2026-05-09 05:18
Airport Tirana International Airport Mother Teresa (LATI)
Time Latitude Longitude Altitude Speed Heading
2026-05-09 03:09 35.33686 25.18864 90 ft 0 kts 148°
2026-05-09 03:25 35.33671 25.18864 90 ft 6 kts 218°
2026-05-09 03:26 35.33635 25.18795 90 ft 12 kts 209°
2026-05-09 03:26 35.33573 25.18715 90 ft 14 kts 269°
2026-05-09 03:26 35.33630 25.18597 90 ft 18 kts 304°
2026-05-09 03:26 35.33711 25.18447 90 ft 22 kts 309°
2026-05-09 03:27 35.33799 25.18294 90 ft 19 kts 306°
2026-05-09 03:27 35.33879 25.18161 90 ft 18 kts 306°
2026-05-09 03:27 35.33942 25.18048 90 ft 10 kts 279°
2026-05-09 03:27 35.33910 25.18000 90 ft 6 kts 203°
2026-05-09 03:28 35.33882 25.17969 90 ft 3 kts 189°
2026-05-09 03:28 35.33872 25.17989 90 ft 3 kts 58°
2026-05-09 03:28 35.33888 25.17995 89 ft 1 kts 355°
2026-05-09 03:28 35.33919 25.17999 89 ft 8 kts 13°
2026-05-09 03:29 35.33984 25.17978 89 ft 11 kts 320°
2026-05-09 03:29 35.34043 25.17899 90 ft 15 kts 310°
2026-05-09 03:29 35.34119 25.17780 89 ft 20 kts 306°
2026-05-09 03:29 35.34223 25.17606 89 ft 29 kts 303°
2026-05-09 03:30 35.34333 25.17406 89 ft 25 kts 298°
2026-05-09 03:30 35.34368 25.17337 89 ft 7 kts 43°
2026-05-09 03:30 35.34345 25.17403 89 ft 27 kts 128°
2026-05-09 03:30 35.34075 25.17860 90 ft 99 kts 128°
2026-05-09 03:31 35.33565 25.18709 199 ft 148 kts 117°
2026-05-09 03:31 35.33622 25.19987 732 ft 170 kts 65°
2026-05-09 03:31 35.34327 25.21306 814 ft 210 kts 49°
2026-05-09 03:31 35.35464 25.22650 906 ft 240 kts 55°
2026-05-09 03:32 35.36105 25.24564 1428 ft 244 kts 68°
2026-05-09 03:32 35.36865 25.26418 2054 ft 247 kts 66°
2026-05-09 03:32 35.37527 25.28353 2677 ft 252 kts 65°
2026-05-09 03:32 35.38266 25.30310 3302 ft 256 kts 66°
2026-05-09 03:33 35.38987 25.32328 3924 ft 260 kts 65°
2026-05-09 03:33 35.39743 25.34335 4526 ft 262 kts 60°
2026-05-09 03:33 35.41025 25.35849 5117 ft 259 kts 20°
2026-05-09 03:33 35.42757 25.35995 5750 ft 252 kts 341°
2026-05-09 03:34 35.44156 25.34826 6382 ft 245 kts 303°
2026-05-09 03:34 35.44796 25.32940 7023 ft 241 kts 286°
2026-05-09 03:34 35.45353 25.31007 7637 ft 241 kts 288°
2026-05-09 03:34 35.46016 25.29157 8229 ft 242 kts 302°
2026-05-09 03:35 35.47135 25.27632 8856 ft 242 kts 311°
2026-05-09 03:35 35.48323 25.26198 9465 ft 241 kts 314°
2026-05-09 03:35 35.49571 25.24828 10079 ft 238 kts 314°
2026-05-09 03:35 35.50784 25.23486 10687 ft 236 kts 316°
2026-05-09 03:36 35.52040 25.22193 11298 ft 233 kts 316°
2026-05-09 03:36 35.53271 25.20922 11835 ft 233 kts 315°
2026-05-09 03:36 35.54504 25.19644 12307 ft 235 kts 316°
2026-05-09 03:36 35.55752 25.18350 12797 ft 235 kts 315°
2026-05-09 03:37 35.56996 25.17057 13278 ft 235 kts 315°
2026-05-09 03:37 35.58257 25.15748 13764 ft 235 kts 316°
2026-05-09 03:37 35.59489 25.14470 14242 ft 234 kts 316°
2026-05-09 03:37 35.60732 25.13181 14725 ft 233 kts 316°
2026-05-09 03:38 35.61954 25.11914 15204 ft 231 kts 316°
2026-05-09 03:38 35.63176 25.10649 15681 ft 230 kts 316°
2026-05-09 03:38 35.64386 25.09396 16154 ft 228 kts 316°
2026-05-09 03:38 35.65581 25.08161 16625 ft 226 kts 317°
2026-05-09 03:39 35.66776 25.06926 17105 ft 223 kts 317°
2026-05-09 03:39 35.67961 25.05703 17583 ft 221 kts 317°
2026-05-09 03:39 35.69150 25.04477 17987 ft 221 kts 317°
2026-05-09 03:39 35.70330 25.03258 18353 ft 223 kts 317°
2026-05-09 03:40 35.71524 25.02024 18724 ft 224 kts 317°
2026-05-09 03:40 35.72725 25.00781 19098 ft 226 kts 317°
2026-05-09 03:40 35.73924 24.99539 19469 ft 226 kts 317°
2026-05-09 03:40 35.75120 24.98298 19832 ft 227 kts 316°
2026-05-09 03:41 35.76319 24.97062 20191 ft 226 kts 317°
2026-05-09 03:41 35.77537 24.95799 20566 ft 230 kts 316°
2026-05-09 03:41 35.78777 24.94512 20852 ft 235 kts 316°
2026-05-09 03:41 35.80032 24.93189 21113 ft 241 kts 317°
2026-05-09 03:42 35.81582 24.92346 21367 ft 256 kts 342°
2026-05-09 03:42 35.83336 24.91850 21637 ft 258 kts 339°
2026-05-09 03:42 35.85077 24.91303 21884 ft 262 kts 340°
2026-05-09 03:42 35.86845 24.90760 22132 ft 265 kts 340°
2026-05-09 03:43 35.88652 24.90200 22381 ft 266 kts 340°
2026-05-09 03:43 35.90464 24.89648 22627 ft 267 kts 340°
2026-05-09 03:43 35.92257 24.89098 22880 ft 267 kts 340°
2026-05-09 03:43 35.94075 24.88538 23120 ft 267 kts 340°
2026-05-09 03:44 35.95861 24.87988 23365 ft 267 kts 339°
2026-05-09 03:44 35.97681 24.87426 23614 ft 267 kts 339°
2026-05-09 03:44 35.99488 24.86871 23858 ft 267 kts 340°
2026-05-09 03:44 36.01266 24.86320 24100 ft 267 kts 339°
2026-05-09 03:45 36.03097 24.85758 24351 ft 267 kts 339°
2026-05-09 03:45 36.04897 24.85198 24593 ft 266 kts 338°
2026-05-09 03:45 36.06466 24.84145 24837 ft 255 kts 316°
2026-05-09 03:45 36.07829 24.82761 25092 ft 255 kts 317°
2026-05-09 03:46 36.09221 24.81406 25340 ft 254 kts 317°
2026-05-09 03:46 36.10593 24.80051 25588 ft 254 kts 317°
2026-05-09 03:46 36.11970 24.78689 25841 ft 254 kts 317°
2026-05-09 03:46 36.13354 24.77315 26096 ft 253 kts 316°
2026-05-09 03:47 36.14733 24.75953 26350 ft 252 kts 316°
2026-05-09 03:47 36.16093 24.74599 26598 ft 252 kts 316°
2026-05-09 03:47 36.17465 24.73242 26850 ft 251 kts 316°
2026-05-09 03:47 36.18814 24.71900 27098 ft 251 kts 316°
2026-05-09 03:48 36.20186 24.70536 27355 ft 250 kts 316°
2026-05-09 03:48 36.21525 24.69207 27598 ft 249 kts 316°
2026-05-09 03:48 36.22887 24.67849 27851 ft 249 kts 316°
2026-05-09 03:48 36.24216 24.66533 28132 ft 241 kts 316°
2026-05-09 03:49 36.25512 24.65240 28338 ft 242 kts 315°
2026-05-09 03:49 36.26837 24.63920 28590 ft 242 kts 315°
2026-05-09 03:49 36.28131 24.62628 28839 ft 241 kts 315°
2026-05-09 03:49 36.29437 24.61329 29087 ft 241 kts 315°
2026-05-09 03:50 36.30738 24.60025 29334 ft 240 kts 315°
2026-05-09 03:50 36.32045 24.58725 29585 ft 239 kts 315°
2026-05-09 03:50 36.33332 24.57440 29837 ft 238 kts 315°
2026-05-09 03:50 36.34632 24.56144 30019 ft 240 kts 315°
2026-05-09 03:51 36.35948 24.54819 30040 ft 247 kts 315°
2026-05-09 03:51 36.37306 24.53466 30043 ft 255 kts 315°
2026-05-09 03:51 36.38699 24.52072 30042 ft 261 kts 315°
2026-05-09 03:51 36.40116 24.50649 30040 ft 266 kts 315°
2026-05-09 03:52 36.41581 24.49186 30037 ft 271 kts 316°
2026-05-09 03:52 36.43057 24.47707 30033 ft 275 kts 316°
2026-05-09 03:52 36.44566 24.46193 30034 ft 278 kts 315°
2026-05-09 03:52 36.46075 24.44686 30030 ft 280 kts 316°
2026-05-09 03:53 36.47660 24.43294 30025 ft 287 kts 324°
2026-05-09 03:53 36.49231 24.41804 30036 ft 280 kts 311°
2026-05-09 03:53 36.50679 24.40171 30029 ft 283 kts 315°
2026-05-09 03:53 36.52181 24.38613 30030 ft 284 kts 315°
2026-05-09 03:54 36.53719 24.37038 30026 ft 286 kts 315°
2026-05-09 03:54 36.55256 24.35486 30031 ft 286 kts 316°
2026-05-09 03:54 36.56796 24.33922 30037 ft 287 kts 315°
2026-05-09 03:54 36.58358 24.32346 30028 ft 289 kts 315°
2026-05-09 03:55 36.59923 24.30769 30035 ft 289 kts 315°
2026-05-09 03:55 36.61486 24.29192 30030 ft 290 kts 315°
2026-05-09 03:55 36.63052 24.27614 30035 ft 291 kts 315°
2026-05-09 03:55 36.64621 24.26029 30034 ft 291 kts 315°
2026-05-09 03:56 36.66202 24.24435 30035 ft 291 kts 315°
2026-05-09 03:56 36.67771 24.22849 30030 ft 292 kts 315°
2026-05-09 03:56 36.69336 24.21267 30028 ft 292 kts 315°
2026-05-09 03:56 36.70913 24.19675 30032 ft 292 kts 315°
2026-05-09 03:57 36.72492 24.18080 30027 ft 292 kts 315°
2026-05-09 03:57 36.74078 24.16473 30030 ft 292 kts 315°
2026-05-09 03:57 36.75644 24.14886 30030 ft 292 kts 315°
2026-05-09 03:57 36.77212 24.13300 30023 ft 293 kts 315°
2026-05-09 03:58 36.78805 24.11680 30026 ft 292 kts 315°
2026-05-09 03:58 36.80366 24.10099 30028 ft 292 kts 315°
2026-05-09 03:58 36.81953 24.08489 30025 ft 292 kts 315°
2026-05-09 03:58 36.83522 24.06895 30028 ft 292 kts 315°
2026-05-09 03:59 36.85085 24.05308 30029 ft 292 kts 315°
2026-05-09 03:59 36.86668 24.03703 30032 ft 292 kts 315°
2026-05-09 03:59 36.88242 24.02101 30034 ft 292 kts 315°
2026-05-09 03:59 36.89819 24.00489 30038 ft 291 kts 315°
2026-05-09 04:00 36.91392 23.98934 30031 ft 294 kts 320°
2026-05-09 04:00 36.93114 23.97547 30024 ft 290 kts 313°
2026-05-09 04:00 36.94550 23.95815 30037 ft 289 kts 313°
2026-05-09 04:00 36.96081 23.94197 30037 ft 289 kts 314°
2026-05-09 04:01 36.97631 23.92569 30036 ft 290 kts 314°
2026-05-09 04:01 36.99176 23.90977 30035 ft 290 kts 315°
2026-05-09 04:01 37.00741 23.89371 30035 ft 290 kts 315°
2026-05-09 04:01 37.02309 23.87765 30037 ft 290 kts 315°
2026-05-09 04:02 37.03857 23.86185 30037 ft 290 kts 315°
2026-05-09 04:02 37.05419 23.84587 30027 ft 290 kts 315°
2026-05-09 04:02 37.06989 23.82981 30034 ft 290 kts 315°
2026-05-09 04:02 37.08551 23.81386 30036 ft 290 kts 315°
2026-05-09 04:03 37.10107 23.79790 30031 ft 290 kts 315°
2026-05-09 04:03 37.11668 23.78194 30038 ft 290 kts 315°
2026-05-09 04:03 37.13226 23.76594 30035 ft 290 kts 315°
2026-05-09 04:03 37.14765 23.75014 30039 ft 290 kts 315°
2026-05-09 04:04 37.16324 23.73417 30039 ft 290 kts 315°
2026-05-09 04:04 37.17882 23.71818 30033 ft 290 kts 315°
2026-05-09 04:04 37.19447 23.70211 30029 ft 290 kts 315°
2026-05-09 04:04 37.21008 23.68607 30029 ft 290 kts 315°
2026-05-09 04:05 37.22559 23.67010 30031 ft 290 kts 315°
2026-05-09 04:05 37.24119 23.65407 30029 ft 290 kts 315°
2026-05-09 04:05 37.25679 23.63802 30029 ft 290 kts 315°
2026-05-09 04:05 37.27229 23.62205 30034 ft 290 kts 315°
2026-05-09 04:06 37.28804 23.60581 30029 ft 290 kts 315°
2026-05-09 04:06 37.30351 23.58989 30032 ft 290 kts 315°
2026-05-09 04:06 37.31896 23.57392 30032 ft 290 kts 315°
2026-05-09 04:06 37.33467 23.55773 30028 ft 289 kts 315°
2026-05-09 04:07 37.35015 23.54172 30025 ft 289 kts 315°
2026-05-09 04:07 37.36572 23.52564 30025 ft 289 kts 315°
2026-05-09 04:07 37.38111 23.50971 30026 ft 289 kts 314°
2026-05-09 04:07 37.39668 23.49361 30030 ft 289 kts 314°
2026-05-09 04:08 37.41223 23.47753 30030 ft 289 kts 315°
2026-05-09 04:08 37.42763 23.46159 30032 ft 289 kts 315°
2026-05-09 04:08 37.44324 23.44543 30030 ft 289 kts 315°
2026-05-09 04:08 37.45869 23.42936 30035 ft 289 kts 314°
2026-05-09 04:09 37.47417 23.41334 30034 ft 289 kts 314°
2026-05-09 04:09 37.48965 23.39727 30034 ft 289 kts 315°
2026-05-09 04:09 37.50510 23.38116 30041 ft 288 kts 315°
2026-05-09 04:09 37.52053 23.36516 30041 ft 288 kts 315°
2026-05-09 04:10 37.53606 23.34908 30036 ft 289 kts 314°
2026-05-09 04:10 37.55154 23.33296 30047 ft 288 kts 313°
2026-05-09 04:10 37.56684 23.31697 30052 ft 289 kts 314°
2026-05-09 04:10 37.58237 23.30080 30059 ft 289 kts 314°
2026-05-09 04:11 37.59790 23.28463 30053 ft 289 kts 314°
2026-05-09 04:11 37.61338 23.26851 30051 ft 290 kts 314°
2026-05-09 04:11 37.62897 23.25223 30049 ft 290 kts 314°
2026-05-09 04:11 37.64439 23.23618 30048 ft 290 kts 314°
2026-05-09 04:12 37.65998 23.21988 30044 ft 290 kts 314°
2026-05-09 04:12 37.67547 23.20365 30047 ft 290 kts 314°
2026-05-09 04:12 37.69101 23.18745 30057 ft 290 kts 314°
2026-05-09 04:12 37.70654 23.17119 30052 ft 290 kts 314°
2026-05-09 04:13 37.72197 23.15509 30062 ft 289 kts 314°
2026-05-09 04:13 37.73745 23.13884 30061 ft 290 kts 314°
2026-05-09 04:13 37.75304 23.12256 30060 ft 290 kts 314°
2026-05-09 04:13 37.76837 23.10643 30062 ft 290 kts 314°
2026-05-09 04:14 37.78395 23.09007 30075 ft 289 kts 313°
2026-05-09 04:14 37.79938 23.07390 30077 ft 289 kts 314°
2026-05-09 04:14 37.81477 23.05771 30086 ft 289 kts 314°
2026-05-09 04:14 37.83024 23.04147 30096 ft 288 kts 314°
2026-05-09 04:15 37.84557 23.02537 30097 ft 288 kts 314°
2026-05-09 04:15 37.86100 23.00916 30106 ft 287 kts 314°
2026-05-09 04:15 37.87631 22.99300 30109 ft 287 kts 314°
2026-05-09 04:15 37.89172 22.97676 30104 ft 287 kts 314°
2026-05-09 04:16 37.90699 22.96073 30104 ft 287 kts 314°
2026-05-09 04:16 37.92237 22.94451 30096 ft 287 kts 313°
2026-05-09 04:16 37.93834 22.92949 30072 ft 294 kts 322°
2026-05-09 04:16 37.95404 22.91403 30065 ft 282 kts 304°
2026-05-09 04:17 37.96713 22.89526 30074 ft 284 kts 310°
2026-05-09 04:17 37.98130 22.87797 30067 ft 285 kts 310°
2026-05-09 04:17 37.99571 22.86072 30064 ft 286 kts 311°
2026-05-09 04:17 38.01020 22.84360 30062 ft 286 kts 311°
2026-05-09 04:18 38.02466 22.82660 30053 ft 286 kts 311°
2026-05-09 04:18 38.03929 22.80955 30049 ft 286 kts 311°
2026-05-09 04:18 38.05402 22.79237 30048 ft 286 kts 311°
2026-05-09 04:18 38.06874 22.77525 30052 ft 286 kts 311°
2026-05-09 04:19 38.08341 22.75815 30037 ft 287 kts 311°
2026-05-09 04:19 38.09790 22.74123 30041 ft 286 kts 311°
2026-05-09 04:19 38.11272 22.72393 30042 ft 286 kts 311°
2026-05-09 04:19 38.12598 22.70581 30036 ft 282 kts 302°
2026-05-09 04:20 38.14048 22.68859 30051 ft 289 kts 316°
2026-05-09 04:20 38.15598 22.67250 30047 ft 287 kts 312°
2026-05-09 04:20 38.17102 22.65560 30041 ft 287 kts 312°
2026-05-09 04:20 38.18574 22.63880 30044 ft 287 kts 311°
2026-05-09 04:21 38.20044 22.62182 30041 ft 287 kts 311°
2026-05-09 04:21 38.21521 22.60463 30043 ft 287 kts 311°
2026-05-09 04:21 38.24458 22.57044 30042 ft 287 kts 311°
2026-05-09 04:22 38.25932 22.55331 30042 ft 287 kts 311°
2026-05-09 04:22 38.27415 22.53602 30044 ft 287 kts 311°
2026-05-09 04:22 38.28881 22.51885 30050 ft 287 kts 311°
2026-05-09 04:22 38.30345 22.50179 30052 ft 287 kts 311°
2026-05-09 04:23 38.31827 22.48448 30053 ft 287 kts 311°
2026-05-09 04:23 38.33279 22.46750 30060 ft 288 kts 311°
2026-05-09 04:23 38.34766 22.45000 30059 ft 288 kts 311°
2026-05-09 04:23 38.36239 22.43278 30067 ft 288 kts 310°
2026-05-09 04:24 38.37691 22.41577 30068 ft 288 kts 311°
2026-05-09 04:24 38.39171 22.39842 30071 ft 288 kts 311°
2026-05-09 04:24 38.40640 22.38120 30074 ft 288 kts 311°
2026-05-09 04:24 38.42106 22.36395 30075 ft 288 kts 311°
2026-05-09 04:25 38.43585 22.34664 30082 ft 288 kts 311°
2026-05-09 04:25 38.45048 22.32935 30100 ft 288 kts 310°
2026-05-09 04:25 38.46542 22.31188 30111 ft 289 kts 310°
2026-05-09 04:25 38.47994 22.29472 30112 ft 290 kts 310°
2026-05-09 04:26 38.49483 22.27722 30121 ft 290 kts 310°
2026-05-09 04:26 38.50971 22.25973 30127 ft 291 kts 310°
2026-05-09 04:26 38.52458 22.24213 30129 ft 291 kts 310°
2026-05-09 04:26 38.53926 22.22482 30119 ft 291 kts 310°
2026-05-09 04:27 38.55416 22.20724 30119 ft 292 kts 310°
2026-05-09 04:27 38.56901 22.18970 30109 ft 292 kts 311°
2026-05-09 04:27 38.58551 22.17381 30110 ft 296 kts 316°
2026-05-09 04:27 38.59971 22.15572 30115 ft 289 kts 306°
2026-05-09 04:28 38.61413 22.13739 30099 ft 292 kts 310°
2026-05-09 04:28 38.62877 22.11937 30100 ft 292 kts 310°
2026-05-09 04:28 38.64344 22.10185 30092 ft 293 kts 310°
2026-05-09 04:28 38.65834 22.08405 30090 ft 293 kts 310°
2026-05-09 04:29 38.67323 22.06624 30094 ft 293 kts 311°
2026-05-09 04:29 38.68827 22.04841 30093 ft 294 kts 311°
2026-05-09 04:29 38.70324 22.03058 30089 ft 294 kts 311°
2026-05-09 04:29 38.71824 22.01278 30092 ft 294 kts 311°
2026-05-09 04:30 38.73307 21.99513 30091 ft 294 kts 311°
2026-05-09 04:30 38.74815 21.97724 30089 ft 295 kts 311°
2026-05-09 04:30 38.76310 21.95934 30089 ft 294 kts 311°
2026-05-09 04:30 38.77805 21.94154 30087 ft 294 kts 311°
2026-05-09 04:31 38.79309 21.92362 30087 ft 294 kts 311°
2026-05-09 04:31 38.80789 21.90597 30085 ft 294 kts 311°
2026-05-09 04:31 38.82284 21.88808 30088 ft 294 kts 311°
2026-05-09 04:31 38.83775 21.87026 30085 ft 294 kts 311°
2026-05-09 04:32 38.85274 21.85240 30088 ft 294 kts 310°
2026-05-09 04:32 38.86775 21.83448 30089 ft 294 kts 311°
2026-05-09 04:32 38.88269 21.81655 30084 ft 294 kts 311°
2026-05-09 04:32 38.89742 21.79887 30086 ft 294 kts 311°
2026-05-09 04:33 38.91243 21.78090 30086 ft 294 kts 310°
2026-05-09 04:33 38.92740 21.76297 30089 ft 295 kts 311°
2026-05-09 04:33 38.94228 21.74505 30089 ft 294 kts 310°
2026-05-09 04:33 38.95718 21.72723 30084 ft 294 kts 311°
2026-05-09 04:34 38.97225 21.70914 30086 ft 294 kts 310°
2026-05-09 04:34 38.98706 21.69134 30078 ft 294 kts 311°
2026-05-09 04:34 39.00205 21.67329 30073 ft 294 kts 311°
2026-05-09 04:34 39.01690 21.65542 30070 ft 294 kts 311°
2026-05-09 04:35 39.03184 21.63743 30063 ft 294 kts 311°
2026-05-09 04:35 39.04655 21.61970 30066 ft 293 kts 311°
2026-05-09 04:35 39.06141 21.60175 30063 ft 293 kts 311°
2026-05-09 04:35 39.07650 21.58363 30060 ft 293 kts 311°
2026-05-09 04:36 39.09116 21.56589 30061 ft 293 kts 311°
2026-05-09 04:36 39.10607 21.54782 30061 ft 293 kts 311°
2026-05-09 04:36 39.12089 21.52998 30062 ft 293 kts 311°
2026-05-09 04:36 39.13564 21.51216 30063 ft 292 kts 311°
2026-05-09 04:37 39.15061 21.49401 30066 ft 293 kts 311°
2026-05-09 04:37 39.16531 21.47623 30066 ft 293 kts 311°
2026-05-09 04:37 39.18002 21.45840 30065 ft 293 kts 311°
2026-05-09 04:37 39.19489 21.44040 30073 ft 293 kts 311°
2026-05-09 04:38 39.20977 21.42229 30069 ft 293 kts 311°
2026-05-09 04:38 39.22461 21.40431 30075 ft 293 kts 311°
2026-05-09 04:38 39.23929 21.38646 30071 ft 293 kts 311°
2026-05-09 04:38 39.25412 21.36846 30081 ft 293 kts 311°
2026-05-09 04:39 39.26894 21.35044 30076 ft 294 kts 311°
2026-05-09 04:39 39.28377 21.33240 30089 ft 294 kts 311°
2026-05-09 04:39 39.29853 21.31440 30089 ft 294 kts 311°
2026-05-09 04:39 39.31354 21.29611 30095 ft 294 kts 311°
2026-05-09 04:40 39.32846 21.27794 30096 ft 298 kts 311°
2026-05-09 04:40 39.35901 21.24070 30103 ft 304 kts 311°
2026-05-09 04:41 39.39003 21.20275 30095 ft 310 kts 311°
2026-05-09 04:41 39.42152 21.16425 30093 ft 313 kts 312°
2026-05-09 04:42 39.45326 21.12542 30090 ft 316 kts 311°
2026-05-09 04:42 39.48512 21.08633 30093 ft 317 kts 311°
2026-05-09 04:43 39.51730 21.04683 30083 ft 318 kts 311°
2026-05-09 04:43 39.54953 21.00718 30080 ft 320 kts 312°
2026-05-09 04:44 39.58184 20.96737 30073 ft 320 kts 312°
2026-05-09 04:44 39.61412 20.92760 30071 ft 321 kts 312°
2026-05-09 04:45 39.64642 20.88768 30066 ft 322 kts 311°
2026-05-09 04:45 39.67901 20.84741 30068 ft 323 kts 312°
2026-05-09 04:46 39.71475 20.81210 30080 ft 334 kts 332°
2026-05-09 04:46 39.75682 20.78696 30067 ft 334 kts 330°
2026-05-09 04:47 39.79909 20.76132 30066 ft 334 kts 329°
2026-05-09 04:47 39.84139 20.73566 30079 ft 335 kts 330°
2026-05-09 04:48 39.88379 20.70994 30085 ft 335 kts 330°
2026-05-09 04:48 39.92604 20.68418 30095 ft 336 kts 330°
2026-05-09 04:49 39.96827 20.65846 30101 ft 336 kts 330°
2026-05-09 04:49 40.01073 20.63252 30107 ft 337 kts 330°
2026-05-09 04:50 40.05315 20.60660 30100 ft 337 kts 330°
2026-05-09 04:50 40.09696 20.58332 30079 ft 338 kts 330°
2026-05-09 04:51 40.13771 20.55374 30095 ft 337 kts 329°
2026-05-09 04:51 40.17980 20.52607 30088 ft 338 kts 329°
2026-05-09 04:52 40.22187 20.49891 30079 ft 339 kts 329°
2026-05-09 04:52 40.26420 20.47164 30083 ft 340 kts 329°
2026-05-09 04:53 40.30670 20.44426 30087 ft 340 kts 330°
2026-05-09 04:53 40.34913 20.41684 30081 ft 340 kts 329°
2026-05-09 04:54 40.39158 20.38938 30077 ft 340 kts 330°
2026-05-09 04:54 40.43395 20.36199 30080 ft 340 kts 330°
2026-05-09 04:55 40.47647 20.33439 30082 ft 341 kts 329°
2026-05-09 04:55 40.51888 20.30683 30076 ft 342 kts 329°
2026-05-09 04:56 40.56132 20.27924 30070 ft 342 kts 329°
2026-05-09 04:56 40.60416 20.25132 30062 ft 343 kts 329°
2026-05-09 04:57 40.64684 20.22353 30062 ft 343 kts 329°
2026-05-09 04:57 40.68940 20.19572 30065 ft 343 kts 329°
2026-05-09 04:57 40.71096 20.18163 29668 ft 351 kts 329°
2026-05-09 04:58 40.73331 20.16698 29073 ft 359 kts 329°
2026-05-09 04:58 40.75564 20.15236 28442 ft 365 kts 330°
2026-05-09 04:58 40.77844 20.13746 27801 ft 370 kts 330°
2026-05-09 04:58 40.80159 20.12225 27149 ft 368 kts 329°
2026-05-09 04:59 40.82436 20.10745 26501 ft 366 kts 330°
2026-05-09 04:59 40.84715 20.09264 25847 ft 363 kts 330°
2026-05-09 04:59 40.86962 20.07828 25192 ft 362 kts 333°
2026-05-09 04:59 40.89264 20.06586 24522 ft 354 kts 326°
2026-05-09 05:00 40.90930 20.04355 23848 ft 336 kts 297°
2026-05-09 05:00 40.91669 20.01501 23224 ft 325 kts 286°
2026-05-09 05:00 40.92739 19.98939 22588 ft 321 kts 303°
2026-05-09 05:00 40.94013 19.96555 21956 ft 315 kts 303°
2026-05-09 05:01 40.95354 19.94303 21327 ft 312 kts 306°
2026-05-09 05:01 40.96692 19.92093 20705 ft 309 kts 306°
2026-05-09 05:01 40.98070 19.89927 20071 ft 306 kts 307°
2026-05-09 05:01 40.99416 19.87800 19451 ft 303 kts 307°
2026-05-09 05:02 41.00781 19.85665 18824 ft 301 kts 307°
2026-05-09 05:02 41.02104 19.83584 18212 ft 300 kts 307°
2026-05-09 05:02 41.03457 19.81462 17607 ft 299 kts 307°
2026-05-09 05:02 41.04784 19.79374 17011 ft 299 kts 307°
2026-05-09 05:03 41.06120 19.77272 16412 ft 298 kts 307°
2026-05-09 05:03 41.07444 19.75189 15814 ft 298 kts 307°
2026-05-09 05:03 41.08784 19.73078 15295 ft 295 kts 308°
2026-05-09 05:03 41.10080 19.71035 14816 ft 293 kts 308°
2026-05-09 05:04 41.11391 19.68970 14327 ft 291 kts 308°
2026-05-09 05:04 41.12694 19.66911 13834 ft 290 kts 308°
2026-05-09 05:04 41.13980 19.64880 13339 ft 289 kts 308°
2026-05-09 05:04 41.15287 19.62815 12836 ft 289 kts 308°
2026-05-09 05:05 41.16589 19.60807 12344 ft 289 kts 313°
2026-05-09 05:05 41.18335 19.59516 11826 ft 296 kts 345°
2026-05-09 05:05 41.20400 19.59345 11352 ft 296 kts 353°
2026-05-09 05:05 41.22440 19.58999 10856 ft 295 kts 352°
2026-05-09 05:06 41.24461 19.58795 10366 ft 294 kts 351°
2026-05-09 05:06 41.26488 19.58485 9867 ft 292 kts 353°
2026-05-09 05:06 41.28498 19.58235 9369 ft 291 kts 351°
2026-05-09 05:06 41.30519 19.57954 8900 ft 289 kts 353°
2026-05-09 05:07 41.32503 19.57686 8524 ft 284 kts 352°
2026-05-09 05:07 41.34439 19.57424 8152 ft 280 kts 353°
2026-05-09 05:07 41.36365 19.57163 7861 ft 274 kts 352°
2026-05-09 05:07 41.38263 19.56906 7607 ft 273 kts 352°
2026-05-09 05:08 41.40149 19.56652 7355 ft 271 kts 352°
2026-05-09 05:08 41.42014 19.56398 7105 ft 270 kts 353°
2026-05-09 05:08 41.43890 19.56140 6852 ft 268 kts 353°
2026-05-09 05:08 41.45747 19.55887 6604 ft 267 kts 353°
2026-05-09 05:09 41.47584 19.55640 6358 ft 265 kts 353°
2026-05-09 05:09 41.49415 19.55389 6106 ft 264 kts 354°
2026-05-09 05:09 41.51250 19.55142 5854 ft 264 kts 353°
2026-05-09 05:09 41.53057 19.54898 5604 ft 263 kts 354°
2026-05-09 05:10 41.54882 19.54645 5354 ft 262 kts 354°
2026-05-09 05:10 41.56694 19.54401 5104 ft 262 kts 353°
2026-05-09 05:10 41.58517 19.54153 4853 ft 261 kts 354°
2026-05-09 05:10 41.60327 19.53900 4599 ft 260 kts 354°
2026-05-09 05:11 41.62109 19.53979 4321 ft 261 kts 17°
2026-05-09 05:11 41.63541 19.55412 4077 ft 262 kts 54°
2026-05-09 05:11 41.64072 19.57688 4004 ft 258 kts 86°
2026-05-09 05:11 41.64195 19.60053 3989 ft 250 kts 80°
2026-05-09 05:12 41.64378 19.62325 3988 ft 245 kts 86°
2026-05-09 05:12 41.64531 19.64577 3987 ft 239 kts 82°
2026-05-09 05:12 41.64580 19.66762 3907 ft 238 kts 100°
2026-05-09 05:12 41.63685 19.68589 3749 ft 236 kts 142°
2026-05-09 05:13 41.62189 19.69308 3568 ft 226 kts 173°
2026-05-09 05:13 41.60662 19.69512 3313 ft 218 kts 173°
2026-05-09 05:13 41.59164 19.69713 3059 ft 212 kts 174°
2026-05-09 05:13 41.57713 19.69901 3002 ft 199 kts 174°
2026-05-09 05:14 41.56485 19.70064 2799 ft 156 kts 174°
2026-05-09 05:14 41.55470 19.70201 2578 ft 137 kts 174°
2026-05-09 05:14 41.54545 19.70322 2405 ft 131 kts 174°
2026-05-09 05:14 41.53659 19.70440 2239 ft 128 kts 173°
2026-05-09 05:15 41.52767 19.70559 2077 ft 127 kts 174°
2026-05-09 05:15 41.51890 19.70673 1919 ft 126 kts 174°
2026-05-09 05:15 41.51017 19.70789 1763 ft 125 kts 173°
2026-05-09 05:15 41.50172 19.70901 1609 ft 119 kts 173°
2026-05-09 05:16 41.49356 19.71010 1446 ft 117 kts 174°
2026-05-09 05:16 41.48542 19.71119 1286 ft 115 kts 174°
2026-05-09 05:16 41.47747 19.71224 1132 ft 114 kts 174°
2026-05-09 05:16 41.46955 19.71331 978 ft 114 kts 174°
2026-05-09 05:17 41.46164 19.71437 826 ft 113 kts 175°
2026-05-09 05:17 41.45381 19.71540 676 ft 113 kts 175°
2026-05-09 05:17 41.44596 19.71641 525 ft 113 kts 176°
2026-05-09 05:17 41.43810 19.71747 366 ft 112 kts 175°
2026-05-09 05:18 41.43043 19.71847 218 ft 111 kts 175°
2026-05-09 05:18 41.42301 19.71946 112 ft 91 kts 175°
2026-05-09 05:18 41.41910 19.71989 115 ft 11 kts 202°
2026-05-09 05:18 41.41888 19.71936 115 ft 5 kts 267°
2026-05-09 05:19 41.41885 19.71882 115 ft 6 kts 265°
2026-05-09 05:19 41.41880 19.71812 115 ft 8 kts 264°
2026-05-09 05:19 41.41875 19.71735 115 ft 8 kts 264°
2026-05-09 05:19 41.41868 19.71660 114 ft 8 kts 263°
2026-05-09 05:20 41.41874 19.71592 114 ft 7 kts 328°
2026-05-09 05:20 41.41926 19.71584 114 ft 7 kts 355°
2026-05-09 05:20 41.41980 19.71577 113 ft 7 kts 355°
2026-05-09 05:20 41.42036 19.71571 113 ft 8 kts 355°
2026-05-09 05:21 41.42092 19.71562 112 ft 8 kts 353°
2026-05-09 05:21 41.42150 19.71555 112 ft 8 kts 359°
2026-05-09 05:21 41.42207 19.71549 111 ft 8 kts 355°
2026-05-09 05:21 41.42262 19.71541 111 ft 8 kts 354°
2026-05-09 05:22 41.42316 19.71535 111 ft 7 kts 356°
2026-05-09 05:22 41.42370 19.71529 111 ft 7 kts 354°
2026-05-09 05:22 41.42425 19.71522 110 ft 7 kts 354°
2026-05-09 05:22 41.42479 19.71515 110 ft 8 kts 354°
2026-05-09 05:23 41.42530 19.71508 110 ft 6 kts 353°
2026-05-09 05:23 41.42570 19.71502 110 ft 5 kts 354°
2026-05-09 05:23 41.42609 19.71497 109 ft 5 kts 355°
2026-05-09 05:23 41.42645 19.71491 109 ft 4 kts 347°
2026-05-09 05:24 41.42670 19.71479 109 ft 1 kts
2026-05-09 05:24 41.42681 19.71496 109 ft 3 kts 71°
2026-05-09 05:24 41.42686 19.71520 109 ft 2 kts 75°
2026-05-09 05:24 41.42684 19.71541 109 ft 0 kts 139°
2026-05-09 05:25 41.42683 19.71542 109 ft 0 kts 139°